When you browse on this site, cookies collect data to enhance your experience and personalize the content and advertising you see.
Visit our Privacy Policy to learn more. By continuing to use the site, you agree to this use of cookies and data.
EN

Hourly Weather Yablunytsya

Today, 12 August, Wednesday

Time Temperature Precipitation Wind Pressure Humidity
00:00 +19°C° 0 mm 1 mps 708 mmHg 95%
01:00 +19°C° 0 mm 1 mps 708 mmHg 96%
02:00 +13°C° 0 mm 0 mps 708 mmHg 100%
03:00 +16°C° 0 mm 1 mps 708 mmHg 96%
04:00 +16°C° 0 mm 1 mps 708 mmHg 92%
05:00 +16°C° 0 mm 1 mps 708 mmHg 90%
06:00 +16°C° 0 mm 1 mps 708 mmHg 93%
07:00 +16°C° 0 mm 1 mps 709 mmHg 99%
08:00 +17°C° 0 mm 2 mps 709 mmHg 100%
09:00 +18°C° 0 mm 2 mps 709 mmHg 100%
10:00 +19°C° 0 mm 3 mps 710 mmHg 100%
11:00 +19°C° 0 mm 3 mps 710 mmHg 99%
12:00 +20°C° 0 mm 3 mps 710 mmHg 95%
13:00 +20°C° 0 mm 4 mps 710 mmHg 96%
14:00 +21°C° 0 mm 4 mps 710 mmHg 91%
15:00 +21°C° 0 mm 3 mps 710 mmHg 89%
16:00 +20°C° 0 mm 4 mps 709 mmHg 93%
17:00 +20°C° 0 mm 4 mps 709 mmHg 94%
18:00 +19°C° 0 mm 4 mps 709 mmHg 100%
19:00 +18°C° 0 mm 3 mps 709 mmHg 100%
20:00 +17°C° 0 mm 2 mps 710 mmHg 100%
21:00 +17°C° 0.2 mm 2 mps 710 mmHg 100%
22:00 +16°C° 0.4 mm 1 mps 710 mmHg 100%
23:00 +16°C° 2.6 mm 2 mps 710 mmHg 100%

Tomorrow, 13 August, Thursday

Time Temperature Precipitation Wind Pressure Humidity
00:00 +16°C° 0.3 mm 2 mps 710 mmHg 100%
01:00 +15°C° 0 mm 1 mps 710 mmHg 100%
02:00 +15°C° 0 mm 1 mps 709 mmHg 100%
03:00 +14°C° 0 mm 1 mps 709 mmHg 100%
04:00 +14°C° 0 mm 1 mps 709 mmHg 100%
05:00 +14°C° 0 mm 1 mps 709 mmHg 100%
06:00 +13°C° 0 mm 1 mps 708 mmHg 100%
07:00 +14°C° 0 mm 1 mps 709 mmHg 100%
08:00 +14°C° 0 mm 0 mps 709 mmHg 100%
09:00 +16°C° 0 mm 1 mps 709 mmHg 100%
10:00 +19°C° 0 mm 1 mps 710 mmHg 94%
11:00 +19°C° 0 mm 2 mps 710 mmHg 86%
12:00 +19°C° 0 mm 2 mps 710 mmHg 80%
13:00 +20°C° 0 mm 2 mps 710 mmHg 85%
14:00 +20°C° 0 mm 2 mps 710 mmHg 95%
15:00 +20°C° 0 mm 2 mps 710 mmHg 96%
16:00 +20°C° 0 mm 2 mps 709 mmHg 98%
17:00 +20°C° 0.9 mm 2 mps 709 mmHg 100%
18:00 +21°C° 0.7 mm 1 mps 709 mmHg 100%
19:00 +19°C° 0.5 mm 2 mps 708 mmHg 100%
20:00 +19°C° 0.3 mm 1 mps 709 mmHg 100%
21:00 +19°C° 0.3 mm 1 mps 709 mmHg 100%
22:00 +19°C° 0 mm 1 mps 709 mmHg 100%
23:00 +19°C° 0 mm 1 mps 709 mmHg 100%

Day after tomorrow, 14 August, Friday

Time Temperature Precipitation Wind Pressure Humidity
00:00 +16°C° 0 mm 0 mps 709 mmHg 100%
01:00 +18°C° 0 mm 1 mps 708 mmHg 100%
02:00 +16°C° 0 mm 2 mps 708 mmHg 100%
03:00 +15°C° 0 mm 2 mps 708 mmHg 100%
04:00 +16°C° 0 mm 1 mps 707 mmHg 91%
05:00 +16°C° 0 mm 1 mps 707 mmHg 90%
06:00 +16°C° 0 mm 1 mps 707 mmHg 92%
07:00 +15°C° 0 mm 0 mps 707 mmHg 95%
08:00 +16°C° 0 mm 0 mps 708 mmHg 100%
09:00 +19°C° 0 mm 1 mps 708 mmHg 100%
10:00 +20°C° 0 mm 1 mps 708 mmHg 100%
11:00 +20°C° 0 mm 2 mps 708 mmHg 100%
12:00 +21°C° 0 mm 2 mps 709 mmHg 98%
13:00 +21°C° 0 mm 3 mps 708 mmHg 97%
14:00 +21°C° 0 mm 3 mps 708 mmHg 96%
15:00 +22°C° 0.1 mm 3 mps 708 mmHg 93%
16:00 +21°C° 0.6 mm 3 mps 708 mmHg 95%
17:00 +21°C° 0.1 mm 3 mps 708 mmHg 98%
18:00 +20°C° 0.3 mm 2 mps 707 mmHg 96%
19:00 +19°C° 0.4 mm 3 mps 707 mmHg 100%
20:00 +18°C° 0 mm 2 mps 707 mmHg 100%
21:00 +19°C° 0 mm 1 mps 707 mmHg 100%
22:00 +18°C° 0 mm 2 mps 708 mmHg 100%
23:00 +19°C° 0 mm 1 mps 708 mmHg 100%

15 August, Saturday

Time Temperature Precipitation Wind Pressure Humidity
00:00 +18°C° 0 mm 1 mps 708 mmHg 100%
01:00 +16°C° 0 mm 1 mps 707 mmHg 100%
02:00 +16°C° 0 mm 1 mps 707 mmHg 100%
03:00 +16°C° 0 mm 1 mps 707 mmHg 100%
04:00 +15°C° 0 mm 1 mps 707 mmHg 100%
05:00 +15°C° 0 mm 1 mps 707 mmHg 100%
06:00 +15°C° 0 mm 1 mps 706 mmHg 100%
07:00 +16°C° 0 mm 1 mps 707 mmHg 100%
08:00 +17°C° 0 mm 2 mps 707 mmHg 100%
09:00 +18°C° 0 mm 2 mps 707 mmHg 100%
10:00 +19°C° 0 mm 2 mps 708 mmHg 100%
11:00 +20°C° 0 mm 3 mps 708 mmHg 100%
12:00 +21°C° 0 mm 3 mps 708 mmHg 100%
13:00 +21°C° 0 mm 3 mps 707 mmHg 100%
14:00 +21°C° 0 mm 4 mps 707 mmHg 100%
15:00 +21°C° 0 mm 5 mps 707 mmHg 100%
16:00 +20°C° 0 mm 4 mps 707 mmHg 100%
17:00 +20°C° 0 mm 5 mps 707 mmHg 100%
18:00 +19°C° 0 mm 5 mps 707 mmHg 100%
19:00 +18°C° 0 mm 4 mps 707 mmHg 100%
20:00 +18°C° 0 mm 3 mps 707 mmHg 100%
21:00 +17°C° 0 mm 2 mps 707 mmHg 100%
22:00 +17°C° 0 mm 2 mps 707 mmHg 100%
23:00 +17°C° 0 mm 3 mps 707 mmHg 100%

16 August, Sunday

Time Temperature Precipitation Wind Pressure Humidity
00:00 +17°C° 0 mm 2 mps 707 mmHg 100%
01:00 +17°C° 0 mm 2 mps 706 mmHg 100%
02:00 +17°C° 0 mm 2 mps 706 mmHg 100%
03:00 +17°C° 0 mm 2 mps 706 mmHg 100%
04:00 +17°C° 0 mm 2 mps 706 mmHg 100%
05:00 +17°C° 0 mm 2 mps 706 mmHg 100%
06:00 +17°C° 0 mm 2 mps 706 mmHg 100%
07:00 +17°C° 0 mm 2 mps 707 mmHg 100%
08:00 +17°C° 0.3 mm 2 mps 707 mmHg 100%
09:00 +18°C° 0.2 mm 2 mps 708 mmHg 100%
10:00 +20°C° 0 mm 3 mps 709 mmHg 99%
11:00 +20°C° 0 mm 3 mps 709 mmHg 98%
12:00 +21°C° 0 mm 4 mps 709 mmHg 96%
13:00 +21°C° 0 mm 4 mps 709 mmHg 97%
14:00 +21°C° 0 mm 4 mps 709 mmHg 96%
15:00 +21°C° 0 mm 4 mps 709 mmHg 94%
16:00 +21°C° 0 mm 4 mps 709 mmHg 95%
17:00 +20°C° 0 mm 4 mps 709 mmHg 98%
18:00 +20°C° 0 mm 3 mps 709 mmHg 97%
19:00 +19°C° 0 mm 3 mps 708 mmHg 99%
20:00 +18°C° 0 mm 2 mps 709 mmHg 100%
21:00 +18°C° 0 mm 3 mps 709 mmHg 100%
22:00 +17°C° 0 mm 2 mps 709 mmHg 100%
23:00 +17°C° 0 mm 2 mps 709 mmHg 100%

17 August, Monday

Time Temperature Precipitation Wind Pressure Humidity
00:00 +16°C° 0 mm 1 mps 709 mmHg 100%
01:00 +15°C° 0 mm 2 mps 709 mmHg 100%
02:00 +15°C° 0 mm 2 mps 709 mmHg 100%
03:00 +15°C° 0 mm 1 mps 709 mmHg 100%
04:00 +14°C° 0 mm 1 mps 709 mmHg 100%
05:00 +14°C° 0 mm 1 mps 709 mmHg 99%
06:00 +14°C° 0 mm 1 mps 709 mmHg 98%
07:00 +14°C° 0 mm 0 mps 709 mmHg 100%
08:00 +15°C° 0 mm 0 mps 709 mmHg 100%
09:00 +17°C° 0 mm 0 mps 710 mmHg 100%
10:00 +21°C° 0 mm 1 mps 711 mmHg 96%
11:00 +22°C° 0 mm 1 mps 711 mmHg 87%
12:00 +23°C° 0 mm 2 mps 711 mmHg 82%
13:00 +23°C° 0 mm 2 mps 711 mmHg 82%
14:00 +23°C° 0 mm 2 mps 711 mmHg 83%
15:00 +23°C° 0 mm 2 mps 711 mmHg 85%
16:00 +22°C° 0 mm 3 mps 710 mmHg 87%
17:00 +22°C° 0 mm 3 mps 710 mmHg 89%
18:00 +21°C° 0 mm 3 mps 710 mmHg 91%
19:00 +21°C° 0 mm 2 mps 710 mmHg 97%
20:00 +21°C° 0 mm 1 mps 710 mmHg 99%
21:00 +20°C° 0 mm 1 mps 710 mmHg 99%
22:00 +19°C° 0 mm 2 mps 710 mmHg 100%
23:00 +18°C° 0 mm 2 mps 710 mmHg 100%
Show more